Location: Unspecified
(42.9300°N, 71.1866°W)
Time: 04:00:21
(UTC-05:00)

CZ-3 Stage 3 - Visible Passes

Search period start: 25 February 2017 00:00
Search period end: 07 March 2017 00:00
Orbit: 410 x 34791 km, 30.6° (Epoch: 24 February)

Date Brightness Start Highest point End Pass type
(mag) Time Alt. Az. Time Alt. Az. Time Alt. Az.
25 Feb 7.5 17:50:00 10° ESE 00:26:44 40° E 02:38:23 10° ESE visible
26 Feb 9.4 05:35:50 10° WNW 06:37:20 13° WNW 08:05:12 10° WNW visible
27 Feb 8.2 00:41:59 10° WSW 02:58:52 54° WSW 09:47:00 10° SW visible
27 Feb 7.6 20:57:53 10° SSW 02:20:49 74° SSE 06:21:13 10° SSE visible
28 Feb 7.5 17:39:20 10° ESE 00:17:20 40° E 02:29:19 10° ESE visible
01 Mar 9.4 05:25:01 10° WNW 06:27:29 13° WNW 07:57:19 10° WNW visible
02 Mar 8.2 00:33:01 10° WSW 02:49:00 54° WSW 09:37:03 10° SW visible
02 Mar 7.6 20:48:52 10° SSW 02:08:59 74° SSE 06:12:10 10° SSE visible
03 Mar 7.4 17:28:52 10° ESE 00:07:56 40° E 02:20:11 10° ESE visible
04 Mar 9.4 05:14:18 10° WNW 06:17:32 13° WNW 07:49:05 10° WNW visible
05 Mar 8.2 00:24:02 10° WSW 02:39:06 54° WSW 09:26:59 10° SW visible
05 Mar 7.6 20:39:52 10° SSW 01:57:08 73° SSE 06:03:04 10° SSE visible
